Time,TemperatureF,DewpointF,PressureIn,WindDirection,WindDirectionDegrees,WindSpeedMPH,WindSpeedGustMPH,Humidity,HourlyPrecipIn,Conditions,Clouds,dailyrainin,SolarRadiationWatts/m^2,SoftwareType,DateUTC
2013-09-22 00:02:00,-999.0,-99.9,-100.00,NW,316,2.0,6.0,-999,-99.99,,,-99.99,0.000000,,2013-09-22 04:02:00,
2013-09-22 00:44:00,52.0,51.0,-100.00,NW,308,1.0,6.0,96,0.00,,,1.33,0.000000,,2013-09-22 04:44:00,
2013-09-22 00:54:00,52.0,51.0,-100.00,NW,308,1.0,6.0,96,0.00,,,1.33,0.000000,,2013-09-22 04:54:00,
2013-09-22 01:03:00,52.0,51.0,-100.00,NW,308,1.0,6.0,96,0.00,,,1.33,0.000000,,2013-09-22 05:03:00,
2013-09-22 01:43:00,50.0,49.0,-100.00,NNW,336,0.0,4.0,97,0.01,,,1.34,0.000000,,2013-09-22 05:43:00,
2013-09-22 01:53:00,50.0,49.0,-100.00,NNW,336,0.0,4.0,97,0.01,,,1.34,0.000000,,2013-09-22 05:53:00,
2013-09-22 02:02:00,50.0,49.0,-100.00,NNW,336,0.0,4.0,97,0.01,,,1.34,0.000000,,2013-09-22 06:02:00,
2013-09-22 02:42:00,51.0,50.0,-100.00,South,189,0.0,0.0,98,0.00,,,1.34,0.000000,,2013-09-22 06:42:00,
2013-09-22 02:52:00,51.0,50.0,-100.00,South,189,0.0,0.0,98,0.00,,,1.34,0.000000,,2013-09-22 06:52:00,
2013-09-22 03:02:00,51.0,50.0,-100.00,South,189,0.0,0.0,98,0.00,,,1.34,0.000000,,2013-09-22 07:02:00,
2013-09-22 03:42:00,51.0,50.0,-100.00,NW,325,3.0,6.0,98,0.00,,,1.34,0.000000,,2013-09-22 07:42:00,
2013-09-22 03:52:00,51.0,50.0,-100.00,NW,325,3.0,6.0,98,0.00,,,1.34,0.000000,,2013-09-22 07:52:00,
2013-09-22 04:04:00,51.0,50.0,-100.00,NW,325,3.0,6.0,98,0.00,,,1.34,0.000000,,2013-09-22 08:04:00,
2013-09-22 04:42:00,50.0,49.0,-100.00,NW,325,1.0,7.0,95,0.00,,,1.34,0.000000,,2013-09-22 08:42:00,
2013-09-22 04:52:00,50.0,49.0,-100.00,NW,325,1.0,7.0,95,0.00,,,1.34,0.000000,,2013-09-22 08:52:00,
2013-09-22 05:02:00,50.0,49.0,-100.00,NW,325,1.0,7.0,95,0.00,,,1.34,0.000000,,2013-09-22 09:02:00,
2013-09-22 05:43:00,50.0,49.0,-100.00,WNW,282,0.0,5.0,97,0.00,,,1.28,0.000000,,2013-09-22 09:43:00,
2013-09-22 05:54:00,50.0,49.0,-100.00,WNW,282,0.0,5.0,97,0.00,,,1.28,0.000000,,2013-09-22 09:54:00,
2013-09-22 06:04:00,50.0,49.0,-100.00,WNW,282,0.0,5.0,97,0.00,,,1.28,0.000000,,2013-09-22 10:04:00,
2013-09-22 06:44:00,49.0,48.0,-100.00,SSE,161,0.0,4.0,97,0.00,,,1.23,0.000000,,2013-09-22 10:44:00,
2013-09-22 06:53:00,49.0,48.0,-100.00,SSE,161,0.0,4.0,97,0.00,,,1.23,0.000000,,2013-09-22 10:53:00,
2013-09-22 07:42:00,49.0,48.0,-100.00,NW,307,1.0,9.0,95,0.00,,,1.23,0.000000,,2013-09-22 11:42:00,
2013-09-22 07:52:00,49.0,48.0,-100.00,NW,307,1.0,9.0,95,0.00,,,1.23,0.000000,,2013-09-22 11:52:00,
2013-09-22 08:02:00,49.0,48.0,-100.00,NW,307,1.0,9.0,95,0.00,,,1.23,0.000000,,2013-09-22 12:02:00,
2013-09-22 08:42:00,49.0,47.0,-100.00,NW,318,3.0,6.0,94,0.00,,,1.23,21.000000,,2013-09-22 12:42:00,
2013-09-22 08:52:00,49.0,47.0,-100.00,NW,318,3.0,6.0,94,0.00,,,1.23,21.000000,,2013-09-22 12:52:00,
2013-09-22 09:02:00,49.0,47.0,-100.00,NW,318,3.0,6.0,94,0.00,,,1.23,21.000000,,2013-09-22 13:02:00,
2013-09-22 09:42:00,51.0,47.0,-100.00,NNW,327,4.0,9.0,85,0.00,,,1.19,113.000000,,2013-09-22 13:42:00,
2013-09-22 09:52:00,51.0,47.0,-100.00,NNW,327,4.0,9.0,85,0.00,,,1.19,113.000000,,2013-09-22 13:52:00,
2013-09-22 10:02:00,51.0,47.0,-100.00,NNW,327,4.0,9.0,85,0.00,,,1.19,113.000000,,2013-09-22 14:02:00,
2013-09-22 10:42:00,54.0,49.0,-100.00,NW,308,4.0,14.0,83,0.00,,,0.93,267.000000,,2013-09-22 14:42:00,
2013-09-22 10:52:00,54.0,49.0,-100.00,NW,308,4.0,14.0,83,0.00,,,0.93,267.000000,,2013-09-22 14:52:00,
2013-09-22 11:02:00,54.0,49.0,-100.00,NW,308,4.0,14.0,83,0.00,,,0.93,267.000000,,2013-09-22 15:02:00,
2013-09-22 11:44:00,53.0,46.0,-100.00,NNW,332,6.0,12.0,78,0.00,,,0.70,226.000000,,2013-09-22 15:44:00,
2013-09-22 11:55:00,53.0,46.0,-100.00,NNW,332,6.0,12.0,78,0.00,,,0.70,226.000000,,2013-09-22 15:55:00,
2013-09-22 12:04:00,53.0,46.0,-100.00,NNW,332,6.0,12.0,78,0.00,,,0.70,226.000000,,2013-09-22 16:04:00,
2013-09-22 12:43:00,54.0,45.0,-100.00,NNW,337,4.0,11.0,72,0.00,,,0.54,387.000000,,2013-09-22 16:43:00,
2013-09-22 12:54:00,54.0,45.0,-100.00,NNW,337,4.0,11.0,72,0.00,,,0.54,387.000000,,2013-09-22 16:54:00,
2013-09-22 13:04:00,54.0,45.0,-100.00,NNW,337,4.0,11.0,72,0.00,,,0.54,387.000000,,2013-09-22 17:04:00,
2013-09-22 13:43:00,56.0,47.0,-100.00,NNW,328,4.0,10.0,71,0.00,,,0.42,314.000000,,2013-09-22 17:43:00,
2013-09-22 13:53:00,56.0,47.0,-100.00,NNW,328,4.0,10.0,71,0.00,,,0.42,314.000000,,2013-09-22 17:53:00,
2013-09-22 14:02:00,56.0,47.0,-100.00,NNW,328,4.0,10.0,71,0.00,,,0.42,314.000000,,2013-09-22 18:02:00,
2013-09-22 14:42:00,55.0,45.0,-100.00,NNW,336,5.0,10.0,68,0.00,,,0.31,303.000000,,2013-09-22 18:42:00,
2013-09-22 14:52:00,55.0,45.0,-100.00,NNW,336,5.0,10.0,68,0.00,,,0.31,303.000000,,2013-09-22 18:52:00,
2013-09-22 15:02:00,55.0,45.0,-100.00,NNW,336,5.0,10.0,68,0.00,,,0.31,303.000000,,2013-09-22 19:02:00,
2013-09-22 15:42:00,54.0,44.0,-100.00,NW,314,5.0,12.0,68,0.00,,,0.20,326.000000,,2013-09-22 19:42:00,
2013-09-22 15:53:00,54.0,44.0,-100.00,NW,314,5.0,12.0,68,0.00,,,0.20,326.000000,,2013-09-22 19:53:00,
2013-09-22 16:03:00,54.0,44.0,-100.00,NW,314,5.0,12.0,68,0.00,,,0.20,326.000000,,2013-09-22 20:03:00,
2013-09-22 16:42:00,53.0,45.0,-100.00,NNW,329,3.0,13.0,74,0.00,,,0.08,235.000000,,2013-09-22 20:42:00,
2013-09-22 16:52:00,53.0,45.0,-100.00,NNW,329,3.0,13.0,74,0.00,,,0.08,235.000000,,2013-09-22 20:52:00,
2013-09-22 17:02:00,53.0,45.0,-100.00,NNW,329,3.0,13.0,74,0.00,,,0.08,235.000000,,2013-09-22 21:02:00,
2013-09-22 17:45:00,53.0,45.0,-100.00,NW,323,4.0,12.0,74,0.00,,,0.02,182.000000,,2013-09-22 21:45:00,
2013-09-22 17:54:00,53.0,45.0,-100.00,NW,323,4.0,12.0,74,0.00,,,0.02,182.000000,,2013-09-22 21:54:00,
2013-09-22 18:04:00,53.0,45.0,-100.00,NW,323,4.0,12.0,74,0.00,,,0.02,182.000000,,2013-09-22 22:04:00,
2013-09-22 18:43:00,51.0,45.0,-100.00,North,351,2.0,7.0,79,0.00,,,0.02,52.000000,,2013-09-22 22:43:00,
2013-09-22 18:54:00,51.0,45.0,-100.00,North,351,2.0,7.0,79,0.00,,,0.02,52.000000,,2013-09-22 22:54:00,
2013-09-22 19:03:00,51.0,45.0,-100.00,North,351,2.0,7.0,79,0.00,,,0.02,52.000000,,2013-09-22 23:03:00,
2013-09-22 19:43:00,49.0,45.0,-100.00,WNW,303,2.0,6.0,86,0.00,,,0.01,11.000000,,2013-09-22 23:43:00,
2013-09-22 19:52:00,49.0,45.0,-100.00,WNW,303,2.0,6.0,86,0.00,,,0.01,11.000000,,2013-09-22 23:52:00,
2013-09-22 20:01:00,49.0,45.0,-100.00,WNW,303,2.0,6.0,86,0.00,,,0.01,11.000000,,2013-09-23 00:01:00,
2013-09-22 20:42:00,48.0,45.0,-100.00,West,261,0.0,5.0,91,0.00,,,0.01,0.000000,,2013-09-23 00:42:00,
2013-09-22 20:53:00,48.0,45.0,-100.00,West,261,0.0,5.0,91,0.00,,,0.01,0.000000,,2013-09-23 00:53:00,
2013-09-22 21:01:00,48.0,45.0,-100.00,West,261,0.0,5.0,91,0.00,,,0.01,0.000000,,2013-09-23 01:01:00,
2013-09-22 21:43:00,48.0,46.0,-100.00,East,99,0.0,2.0,93,0.00,,,0.01,0.000000,,2013-09-23 01:43:00,
2013-09-22 21:52:00,48.0,46.0,-100.00,East,99,0.0,2.0,93,0.00,,,0.01,0.000000,,2013-09-23 01:52:00,
2013-09-22 22:02:00,48.0,46.0,-100.00,East,99,0.0,2.0,93,0.00,,,0.01,0.000000,,2013-09-23 02:02:00,
2013-09-22 22:42:00,48.0,47.0,-100.00,West,279,0.0,3.0,95,0.00,,,0.01,0.000000,,2013-09-23 02:42:00,
2013-09-22 22:52:00,48.0,47.0,-100.00,West,279,0.0,3.0,95,0.00,,,0.01,0.000000,,2013-09-23 02:52:00,
2013-09-22 23:03:00,48.0,47.0,-100.00,West,279,0.0,3.0,95,0.00,,,0.01,0.000000,,2013-09-23 03:03:00,
2013-09-22 23:44:00,48.0,43.0,-100.00,North,9,2.0,8.0,83,0.00,,,-99.99,0.000000,,2013-09-23 03:44:00,
2013-09-22 23:54:00,48.0,43.0,-100.00,North,9,2.0,8.0,83,0.00,,,-99.99,0.000000,,2013-09-23 03:54:00,